Regional Weather Roundup
Issued by NWS Kansas City/Pleasant Hill, MO

Home | Current Version | Previous Version | Text Only | Print | Product List | Glossary On
Versions: 1 2 3 4 5 6 7 8 9 10 11 12 13 14 15 16 17 18 19 20 21 22 23 24 25 26 27 28 29 30 31 32 33 34 35 36 37 38 39 40 41 42 43 44 45 46 47 48 49 50
000
ASUS43 KEAX 261410
RWREAX

WEATHER ROUNDUP FOR EASTERN KANSAS AND NORTHWEST MISSOURI
NATIONAL WEATHER SERVICE KANSAS CITY/PLEASANT HILL MO
800 AM CST WED NOV 26 2014

KSZ040-057-103>105-MOZ028-029-037-043-261500-
...KANSAS CITY METROPOLITAN AREA...

CITY           SKY/WX    TMP DP  RH WIND       PRES   REMARKS
K.C. INTL      PTCLDY    37  33  85 W9        29.94R WCI  30
K.C. DOWNTOWN  CLEAR     39  34  82 W6        29.95R WCI  35
LEES SUMMIT    FAIR      35  33  92 SW8       29.95R WCI  29
OLATHE - IXD   CLEAR     37  32  82 W12       29.96R WCI  29
OLATHE - OJC   CLEAR     37  33  85 W5        29.95R WCI  33
LAWRENCE       PTCLDY    35  30  82 NW7       29.97R WCI  29

$$

MOZ001>008-011>017-020>025-030>033-038>040-044>046-053-054-261500-
...NORTHERN AND CENTRAL MISSOURI...

CITY           SKY/WX    TMP DP  RH WIND       PRES   REMARKS
ST. JOSEPH     CLOUDY    39  32  76 W13       29.93R WCI  31
MOSBY          MOSUNNY   36  34  93 W5        29.93S WCI  32
WARRENSBURG    CLOUDY    32  32 100 S8        29.95S WCI  25
WHITEMAN AFB   CLOUDY    34  32  93 SW9       29.94S WCI  26
CLINTON        CLOUDY    36  34  93 SW7       29.98S WCI  30
SEDALIA        CLOUDY    35  31  85 SW12      29.95F WCI  27
WARSAW         NOT AVBL
MARSHALL       CLOUDY    36  34  93 SW6       29.95S WCI  31
CHILLICOTHE      N/A     35  32  88 SW7       29.92S WCI  29
MOBERLY        LGT SNOW  32  27  80 S9        29.95F VSB 1   WCI  24
KIRKSVILLE     LGT SNOW  30  28  92 SE9       29.93F FOG     WCI  22

$$

MOZ041-047>049-056>058-063>065-088>090-097-261500-
...EASTERN AND SOUTHERN MISSOURI...

CITY           SKY/WX    TMP DP  RH WIND       PRES   REMARKS
ST. LOUIS INTL CLOUDY    31  25  78 SE12      30.06F WCI  22
SPIRIT OF STL  CLOUDY    30  25  81 SE5       30.04F WCI  25
COLUMBIA       CLOUDY    32  24  72 S8        29.96F WCI  25
JEFFERSON CITY CLOUDY    34  22  61 E3        29.99S
MEXICO         CLOUDY    34  28  80 S7        29.97S WCI  28
ROLLA          CLOUDY    34  20  56 S12       29.96S WCI  25
LEBANON        LGT SNOW  34  30  86 W3        29.99R
OSAGE BEACH    CLOUDY    34  28  80 S6        29.99F WCI  29
SPRINGFIELD    LGT SNOW  36  26  67 W8        30.00R WCI  30
BRANSON        CLOUDY    37  25  60 S3        29.97R
NEVADA         CLOUDY    34  32  93 SW3       30.01R
JOPLIN         CLOUDY    38  29  70 NW6       30.02R WCI  33
WEST PLAINS    CLOUDY    34  22  61 SE6       29.99S WCI  29

$$

IAZ060-094-KSZ022-034>040-054-083-096-NEZ052-066-093-261500-
...KANSAS...SOUTHEAST NEBRASKA AND IOWA...

CITY           SKY/WX    TMP DP  RH WIND       PRES   REMARKS
TOPEKA         CLOUDY    40  31  70 W7        29.99R
MANHATTAN      CLOUDY    41  26  55 NW10G17   30.02R WCI  35
EMPORIA        CLEAR     38  29  70 NW10      30.01R WCI  31
CHANUTE        PTCLDY    35  27  72 W7        30.02R WCI  29
WICHITA        MOCLDY    43  27  53 NW16      30.06R
OMAHA          LGT RAIN  37  33  85 NW24G32   29.91R WCI  26
LINCOLN        MOCLDY    36  26  67 NW22G36   29.99R WCI  25
FALLS CITY     CLOUDY    38  31  76 W20       29.93R WCI  28
LAMONI         CLOUDY    33  32  96 SW8       29.84S WCI  26
DES MOINES     FRZ DRZL  30  27  88 E8        29.88S FOG     WCI  22

$$




USA.gov is the U.S. government's official web portal to all federal, state and local government web resources and services.